Hourly Data Report for October 12, 2013

All times are specified in Local Standard Time (LST). Add 1 hour to adjust for Daylight Saving Time where and when it is observed.

FORT LIARD
NORTHWEST TERRITORIES

60°14'00.000" N
123°28'00.000" W
213.40 m
2201579
71497
WJL

Download Data

Hourly Data (October 2013)
Hourly Data Report for October 12, 2013
Temp Definition
°C
Dew Point Temp Definition
°C
Rel Hum Definition
%
Wind Dir Definition
10's deg

Wind Spd Definition
km/h
Visibility Definition
km
Stn Press Definition
kPa
Hmdx Definition


Wind Chill Definition


Weather Definition


TIME
00:00 -2.8 -3.8 93   0   99.06     LegendNANA
01:00 -3.3 -3.9 96   0   99.09     LegendNANA
02:00 -3.6 -4.3 95   0   99.13     LegendNANA
03:00 -3.9 -4.6 95   0   99.16     LegendNANA
04:00 -3.7 -4.3 96   0   99.20     LegendNANA
05:00 -4.4 -5.1 95   0   99.20     LegendNANA
06:00 -4.2 -4.9 95   0   99.23     LegendNANA
07:00 -4.9 -5.4 96   0   99.26     LegendNANA
08:00 -5.5 -6.1 96   0   99.27     LegendNANA
09:00 -3.1 -3.7 96   0   99.33     LegendNANA
10:00 -0.8 -2.6 88   0   99.34     LegendNANA
11:00 1.6 -1.6 79   0   99.36     LegendNANA
12:00 3.2 -1.1 73   0   99.35     LegendNANA
13:00 6.4 -1.5 57   0   99.34     LegendNANA
14:00 8.3 -1.4 50   0   99.32     LegendNANA
15:00 10.1 -1.6 44   0   99.30     LegendNANA
16:00 11.2 -1.7 41   0   99.29     LegendNANA
17:00 9.3 0.0 52   0   99.29     LegendNANA
18:00 3.3 -0.9 74   0   99.28     LegendNANA
19:00 1.1 -0.9 86   0   99.28     LegendNANA
20:00 0.9 -1.3 85 24 9   99.31     LegendNANA
21:00 -0.2 -2.1 87 22 6   99.32   -2 LegendNANA
22:00 -0.5 -2.3 88 22 6   99.32   -3 LegendNANA
23:00 -0.9 -2.4 90 23 6   99.33   -3 LegendNANA

Notes on Data Quality.

Legend

  • E = Estimated
  • M = Missing
  • NA = Not Available
  • ‡ = Partner data that is not subject to review by the National Climate Archives
Date modified: